Tracking 27112 objects as of 27-Mar-2023
HD Live streaming from Space Station
objects crossing your sky now

SES 22

Track SES 22 now!


NORAD ID: 52933
Int'l Code: 2022-071A
Perigee: 35,784.1 km
Apogee: 35,802.7 km
Inclination: 0.0 °
Period: 1,436.1 minutes
Semi major axis: 42164 km
RCS: Unknown
Launch date: June 29, 2022
Source: SOCIETE EUROPEENNE DES SATELLITES (SES)
Launch site: AIR FORCE EASTERN TEST RANGE (AFETR)
Your satellite tracking list
Your tracking list is empty




NASA's NSSDC Master Catalog

Two Line Element Set (TLE):
1 52933U 22071A   23085.66299128  .00000080  00000-0  00000-0 0  9993
2 52933   0.0152 247.1007 0002207 110.6574 289.7390  1.00273020  2722
Source of the keplerian elements: AFSPC